Location: Jackson
(42.2460°N, 84.4010°W)
Time: 03:31:48
(UTC-05:00)

Altair - All Passes

Search period start: 15 February 2026 00:00
Search period end: 25 February 2026 00:00
Orbit: 1502 x 1682 km, 47.2° (Epoch: 13 February)

Date Brightness Start Highest point End Pass type
(mag) Time Alt. Az. Time Alt. Az. Time Alt. Az.
15 Feb - 03:09:29 10° SSE 03:13:37 14° ESE 03:17:47 10° E visible
15 Feb - 05:07:46 10° SSW 05:16:33 53° SE 05:25:35 10° ENE visible
15 Feb - 07:11:45 10° WSW 07:21:02 77° NNW 07:30:43 10° ENE daylight
15 Feb - 09:17:12 10° WNW 09:26:37 67° N 09:36:24 10° E daylight
15 Feb - 11:22:12 10° WNW 11:31:48 79° SSW 11:41:47 10° SE daylight
15 Feb - 13:27:39 10° WNW 13:35:40 30° SW 13:43:53 10° S daylight
16 Feb - 02:45:34 10° SE 02:48:34 12° ESE 02:51:35 10° ESE visible
16 Feb - 04:42:44 10° SSW 04:51:24 49° SE 05:00:17 10° ENE visible
16 Feb - 06:46:29 10° WSW 06:55:47 79° NNW 07:05:25 10° ENE visible
16 Feb - 08:51:56 10° WNW 09:01:18 66° N 09:11:03 10° E daylight
16 Feb - 10:56:57 10° WNW 11:06:34 82° SSW 11:16:31 10° ESE daylight
16 Feb - 13:02:17 10° WNW 13:10:31 33° SW 13:19:00 10° S daylight
17 Feb - 02:23:01 10° SE 02:23:31 10° ESE 02:24:01 10° ESE visible
17 Feb - 04:17:44 10° SSW 04:26:15 45° SE 04:34:58 10° ENE visible
17 Feb - 06:21:15 10° WSW 06:30:31 82° NNW 06:40:07 10° ENE visible
17 Feb - 08:26:39 10° W 08:35:59 66° N 08:45:41 10° E daylight
17 Feb - 10:31:43 10° WNW 10:41:18 86° SSW 10:51:15 10° ESE daylight
17 Feb - 12:36:54 10° WNW 12:45:22 35° SW 12:54:04 10° SSE daylight
18 Feb - 03:52:45 10° SSW 04:01:07 42° SE 04:09:39 10° ENE visible
18 Feb - 05:56:01 10° WSW 06:05:16 85° NNW 06:14:49 10° ENE visible
18 Feb - 08:01:23 10° W 08:10:41 65° N 08:20:19 10° E daylight
18 Feb - 10:06:29 10° WNW 10:16:03 90° S 10:25:59 10° ESE daylight
18 Feb - 12:11:35 10° WNW 12:20:12 38° SW 12:29:06 10° SSE daylight
19 Feb - 03:27:48 10° SSW 03:36:00 38° SE 03:44:19 10° ENE visible
19 Feb - 05:30:48 10° WSW 05:40:01 88° NNW 05:49:32 10° ENE visible
19 Feb - 07:36:07 10° W 07:45:22 65° N 07:54:58 10° E daylight
19 Feb - 09:41:15 10° WNW 09:50:47 87° NNE 10:00:41 10° ESE daylight
19 Feb - 11:46:16 10° WNW 11:55:02 41° SW 12:04:05 10° SSE daylight
20 Feb - 03:02:52 10° SSW 03:10:53 35° SE 03:18:58 10° ENE visible
20 Feb - 05:05:34 10° WSW 05:14:47 88° SSE 05:24:16 10° ENE visible
20 Feb - 07:10:50 10° W 07:20:03 65° N 07:29:38 10° E daylight
20 Feb - 09:16:02 10° WNW 09:25:31 84° NNE 09:35:22 10° ESE daylight
20 Feb - 11:20:59 10° WNW 11:29:52 45° SW 11:39:04 10° SSE daylight
20 Feb - 13:31:08 10° WSW 13:32:49 11° WSW 13:34:29 10° SW daylight
21 Feb - 02:38:00 10° S 02:45:46 32° SE 02:53:36 10° ENE visible
21 Feb - 04:40:22 10° WSW 04:49:34 84° SSE 04:58:59 10° ENE visible
21 Feb - 06:45:33 10° W 06:54:45 66° N 07:04:17 10° ENE visible
21 Feb - 08:50:48 10° WNW 09:00:15 81° NNE 09:10:03 10° ESE daylight
21 Feb - 10:55:42 10° WNW 11:04:42 48° SW 11:14:00 10° SSE daylight
21 Feb - 13:04:18 10° W 13:07:44 12° WSW 13:11:12 10° SW daylight
22 Feb - 02:13:10 10° S 02:20:39 29° SE 02:28:12 10° ENE visible
22 Feb - 04:15:11 10° SW 04:24:20 80° SSE 04:33:44 10° ENE visible
22 Feb - 06:20:16 10° W 06:29:27 66° N 06:38:57 10° ENE visible
22 Feb - 08:25:33 10° WNW 08:34:58 78° NNE 08:44:44 10° ESE daylight
22 Feb - 10:30:26 10° WNW 10:39:30 52° SW 10:48:54 10° SSE daylight
22 Feb - 12:38:10 10° W 12:42:38 14° WSW 12:47:11 10° SSW daylight
23 Feb - 01:48:21 10° S 01:55:34 27° SE 02:02:47 10° ENE visible
23 Feb - 03:50:01 10° SW 03:59:08 76° SSE 04:08:28 10° ENE visible
23 Feb - 05:54:58 10° W 06:04:09 67° N 06:13:38 10° ENE visible
23 Feb - 08:00:19 10° WNW 08:09:41 76° NNE 08:19:24 10° ESE daylight
23 Feb - 10:05:10 10° WNW 10:14:19 55° SW 10:23:48 10° SE daylight
23 Feb - 12:12:18 10° W 12:17:33 16° SW 12:22:54 10° SSW daylight
24 Feb - 01:23:37 10° S 01:30:28 24° SE 01:37:21 10° E visible
24 Feb - 03:24:51 10° SW 03:33:57 72° SSE 03:43:12 10° ENE visible
24 Feb - 05:29:42 10° W 05:38:52 68° N 05:48:19 10° ENE visible
24 Feb - 07:35:04 10° WNW 07:44:24 74° NNE 07:54:04 10° E daylight
24 Feb - 09:39:56 10° WNW 09:49:07 59° SW 09:58:39 10° SE daylight
24 Feb - 11:46:35 10° W 11:52:26 18° SW 11:58:26 10° SSW daylight
